Tracking 19575 objects as of 19-Feb-2019
HD Live streaming from Space Station
objects crossing your sky now

ISO

Track ISO now!
ISO is classified as:


NORAD ID: 23715
Int'l Code: 1995-062A
Perigee: 499.4 km
Apogee: 70,129.3 km
Inclination: 5.1 °
Period: 1,411.7 minutes
Semi major axis: 41685 km
RCS: 3.9811 m2 (large)
Launch date: November 17, 1995
Source: European Space Agency (ESA)
Launch site: FRENCH GUIANA (FRGUI)
aabbcc
Your satellite tracking list
Your tracking list is empty




NASA's NSSDC Master Catalog

Two Line Element Set (TLE):
1 23715U 95062A   19048.75774764  .00000676  00000-0  16165-1 0  9998
2 23715   5.0512 331.8598 8351840 285.9504   5.4494  1.02006544 86352
Source of the keplerian elements: AFSPC